KG1ZR Weather Reports


time (UTC)temp
F
wind
direction
speed
knots
gust
knots
rain 1hr
in
rain 24hr
in
rain mn
in
humidity
%
barometer
mb
20260505130305 59 189 4.3 12.2 0.00 0.02 0.00 68 1006.2
20260505124305 58 229 3.5 8.7 0.00 0.02 0.00 69 1006.1
20260505123305 58 204 3.5 10.4 0.00 0.02 0.00 70 1006.3
20260505122306 57 178 4.3 10.4 0.00 0.02 0.00 70 1006.3
20260505121306 56 173 3.5 11.3 0.00 0.02 0.00 71 1006.3
20260505120745 56 193 6.1 11.3 0.00 0.02 0.00 72 1006.3
20260505115305 55 195 3.5 10.4 0.00 0.02 0.00 73 1006.6
20260505114305 54 192 4.3 7.8 0.00 0.02 0.00 74 1006.4
20260505113305 53 208 3.5 9.6 0.00 0.02 0.00 75 1006.6
20260505112305 53 252 3.5 9.6 0.00 0.02 0.00 76 1006.4
20260505111741 52 200 4.3 9.6 0.00 0.02 0.00 76 1006.5
20260505110306 51 178 4.3 8.7 0.00 0.02 0.00 77 1006.4
20260505101305 50 113 2.6 6.1 0.00 0.02 0.00 77 1006.3
20260505100306 50 165 2.6 7.0 0.00 0.02 0.00 77 1006.3
20260505095304 50 183 3.5 6.1 0.00 0.02 0.00 77 1006.2
20260505094301 50 223 2.6 7.8 0.00 0.02 0.00 77 1006.3
20260505093302 50 186 2.6 7.8 0.00 0.02 0.00 76 1006.2
20260505092304 51 212 3.5 7.0 0.00 0.02 0.00 76 1006.2
20260505091301 50 203 3.5 7.8 0.00 0.02 0.00 76 1006.2
20260505090302 50 171 2.6 7.8 0.00 0.02 0.00 76 1006.3
20260505085304 51 222 2.6 4.3 0.00 0.02 0.00 75 1006.4
20260505084302 51 261 2.6 6.1 0.00 0.02 0.00 75 1006.4
20260505083302 51 201 2.6 6.1 0.00 0.02 0.00 75 1006.5
20260505082741 51 194 0.9 3.5 0.00 0.02 0.00 75 1006.5
20260505081302 51 234 1.7 6.1 0.00 0.02 0.00 75 1006.5
20260505080302 51 184 1.7 6.1 0.00 0.02 0.00 75 1006.5
20260505075304 50 184 1.7 5.2 0.00 0.02 0.00 75 1006.5
20260505074301 50 191 1.7 5.2 0.00 0.02 0.00 75 1006.5
20260505073301 50 207 2.6 5.2 0.00 0.02 0.00 75 1006.5
20260505072301 50 178 2.6 6.1 0.00 0.02 0.00 74 1006.5
20260505071301 51 180 2.6 7.0 0.00 0.02 0.00 74 1006.6
20260505070300 51 199 2.6 7.0 0.00 0.02 0.00 74 1006.6
20260505065303 50 209 2.6 7.0 0.00 0.02 0.00 75 1006.5
20260505064300 50 196 2.6 6.1 0.00 0.02 0.00 75 1006.5
20260505063737 50 177 1.7 5.2 0.00 0.02 0.00 75 1006.4
20260505062301 50 200 1.7 4.3 0.00 0.02 0.00 75 1006.4
20260505061301 50 215 1.7 4.3 0.00 0.02 0.00 75 1006.5
20260505060300 50 161 1.7 4.3 0.00 0.02 0.00 75 1006.5
20260505055301 50 178 2.6 7.0 0.00 0.02 0.00 75 1006.4
20260505054737 50 263 2.6 7.0 0.00 0.02 0.00 76 1006.5
20260505053301 49 219 1.7 6.1 0.00 0.02 0.00 77 1006.4
20260505052301 49 161 1.7 5.2 0.00 0.02 0.00 76 1006.5
20260505051301 49 209 1.7 4.3 0.00 0.02 0.00 77 1006.4
20260505050300 49 213 1.7 7.0 0.00 0.02 0.00 77 1006.3
20260505041300 49 219 2.6 7.0 0.00 0.02 0.00 78 1006.1
20260505040257 49 155 1.7 7.0 0.00 0.02 0.00 78 1006.1
20260505035254 49 231 0.9 4.3 0.00 0.02 0.02 77 1006.0
20260505034255 49 203 1.7 4.3 0.00 0.02 0.02 77 1005.9
20260505033732 50 190 1.7 3.5 0.00 0.02 0.02 77 1005.8
20260505032732 50 199 0.0 3.5 0.00 0.02 0.02 76 1005.9
20260505031252 50 192 0.0 2.6 0.00 0.02 0.02 76 1005.8
20260505030252 51 193 0.0 3.5 0.00 0.02 0.02 75 1005.7
20260505025250 51 222 0.9 3.5 0.00 0.02 0.02 75 1005.8
20260505024250 51 214 0.0 1.7 0.00 0.02 0.02 76 1005.9
20260505023726 52 283 0.0 3.5 0.00 0.02 0.02 74 1005.8
20260505022251 53 244 0.9 3.5 0.00 0.02 0.02 72 1005.8
20260505021251 53 211 0.9 1.7 0.00 0.02 0.02 73 1005.8
20260505020727 53 279 0.9 3.5 0.00 0.02 0.02 73 1005.8
20260505015729 53 310 1.7 3.5 0.00 0.02 0.02 72 1005.7
20260505014248 52 207 0.9 3.5 0.00 0.02 0.02 75 1005.5
20260505013248 51 215 0.9 2.6 0.00 0.02 0.02 77 1005.6
20260505012249 51 227 0.0 1.7 0.00 0.02 0.02 77 1005.6
20260505011416 51 196 0.0 2.6 0.00 0.02 0.02 77 1005.6
20260505005248 51 217 0.0 1.7 0.00 0.02 0.02 77 1005.4
20260505004248 52 234 0.0 1.7 0.00 0.02 0.02 75 1005.4
20260505003249 53 154 0.9 3.5 0.00 0.02 0.02 73 1005.1
20260505002247 54 160 0.0 3.5 0.00 0.02 0.02 72 1004.9
20260505001718 55 162 0.0 0.9 0.00 0.02 0.02 68 1004.8
20260505000243 56 162 0.0 0.9 0.00 0.02 0.02 68 1004.5
20260504235242 57 162 0.0 2.6 0.00 0.02 0.02 63 1004.3
20260504234718 59 162 0.9 2.6 0.00 0.02 0.02 64 1004.2
20260504233242 60 207 0.0 0.9 0.00 0.02 0.02 58 1004.3
20260504232242 61 207 0.0 0.0 0.00 0.02 0.02 56 1004.2
20260504231715 62 207 0.0 1.7 0.00 0.02 0.02 53 1004.0
20260504230242 63 199 0.9 2.6 0.00 0.02 0.02 52 1004.0
20260504225242 64 252 0.9 2.6 0.00 0.02 0.02 51 1003.9
20260504224243 64 240 1.7 5.2 0.00 0.02 0.02 50 1003.8
20260504224221 64 247 1.7 5.2 0.00 0.02 0.02 51 1003.9
20260504222242 64 299 1.7 5.2 0.00 0.02 0.02 50 1003.8
20260504221241 64 263 1.7 4.3 0.00 0.02 0.02 51 1003.9
20260504220725 64 309 1.7 9.6 0.00 0.02 0.02 51 1003.9
20260504220247 64 309 1.7 9.6 0.00 0.02 0.02 51 1003.9
20260504215717 64 245 2.6 9.6 0.00 0.02 0.02 51 1003.9
20260504214723 64 283 3.5 12.2 0.00 0.02 0.02 51 1004.0
20260504214243 64 283 3.5 12.2 0.00 0.02 0.02 51 1004.0
20260504213241 64 290 4.3 13.0 0.00 0.02 0.02 53 1003.9
20260504212241 64 241 4.3 13.0 0.00 0.02 0.02 51 1004.0
20260504211241 63 279 5.2 15.6 0.00 0.02 0.02 54 1004.0
20260504210242 63 254 6.1 13.9 0.00 0.02 0.02 51 1003.9
20260504205240 64 284 5.2 13.0 0.00 0.02 0.02 53 1003.9
20260504204240 63 290 5.2 13.0 0.00 0.02 0.02 53 1003.9
20260504203240 63 284 5.2 12.2 0.00 0.02 0.02 53 1004.0
20260504202240 63 240 5.2 12.2 0.00 0.02 0.02 53 1004.0
20260504201720 63 221 4.3 12.2 0.00 0.02 0.02 57 1004.0
20260504200240 62 271 5.2 11.3 0.00 0.02 0.02 55 1004.2
20260504195716 62 268 6.1 13.9 0.00 0.02 0.02 58 1003.9
20260504194714 62 273 4.3 11.3 0.00 0.02 0.02 60 1004.0
20260504193234 61 257 4.3 9.6 0.00 0.02 0.02 64 1004.0
20260504192234 61 221 4.3 8.7 0.00 0.02 0.02 65 1004.1
20260504191234 61 242 3.5 8.7 0.00 0.02 0.02 67 1004.1
20260504190235 60 272 2.6 7.8 0.00 0.02 0.02 69 1004.1
20260504185235 58 160 3.5 7.8 0.00 0.02 0.02 73 1004.2
20260504184234 58 215 4.3 8.7 0.00 0.02 0.02 70 1004.4
20260504183234 57 273 3.5 7.8 0.01 0.02 0.02 74 1004.4
20260504182232 56 281 3.5 7.8 0.01 0.02 0.02 76 1004.4
20260504181714 55 240 3.5 9.6 0.01 0.02 0.02 77 1004.7
20260504180232 54 282 4.3 9.6 0.01 0.02 0.02 77 1004.7
20260504175705 53 311 1.7 7.0 0.02 0.02 0.02 75 1004.8
20260504174710 52 260 1.7 6.1 0.02 0.02 0.02 75 1004.9
20260504173232 52 293 2.6 7.0 0.01 0.01 0.01 76 1005.1
20260504172232 53 304 2.6 6.1 0.01 0.01 0.01 77 1005.2
20260504171232 54 304 1.7 5.2 0.01 0.01 0.01 77 1004.9
20260504170235 55 310 1.7 9.6 0.01 0.01 0.01 76 1004.8
20260504160233 57 219 4.3 8.7 0.00 0.00 0.00 61 1003.7
20260504150224 54 159 4.3 9.6 0.00 0.03 0.00 64 1004.5
20260504141227 52 176 2.6 7.0 0.00 0.08 0.00 66 1005.3
20260504140218 51 267 4.3 10.4 0.00 0.09 0.00 65 1005.4